Tracking 20724 objects as of 2-Jun-2020
HD Live streaming from Space Station
objects crossing your sky now

YAOGAN-30 P

Track YAOGAN-30 P now!
10-day predictions


NORAD ID: 44450
Int'l Code: 2019-045B
Perigee: 599.3 km
Apogee: 612.4 km
Inclination: 35.0 °
Period: 96.7 minutes
Semi major axis: 6976 km
RCS: Unknown
Launch date: July 26, 2019
Source: People's Republic of China (PRC)
Launch site: Xichang Space Center, China (XSC)
aabbcc
Your satellite tracking list
Your tracking list is empty




NASA's NSSDC Master Catalog

Two Line Element Set (TLE):
1 44450U 19045B   20154.45408907  .00000128  00000-0  15868-4 0  9998
2 44450  34.9972 273.0547 0009448  95.1576 265.0216 14.89751368 46597
Source of the keplerian elements: AFSPC